STARLINK-38226, 100217

Orbit data source: Space-Track

STARLINK-38226, 100217 is a payload satellite owned by SpaceX/Seattle (US) in SSO that was launched on Tue, 04 Aug 2026 UTC launched from the Air Force Western Test Range (AFWTR). Payload-class satellites include a variety of spacecraft equipped with specific instruments for various scientific and technological missions. These include communications satellites like Starlink; space stations such as the ISS; scientific satellites like the Hubble; Earth observation satellites from companies like Planet Labs, Umbra, and HawkEye 360; GPS; miniature CubeSats for education and research; and military/defense satellites.

Loading next visibility...
Identifier
100217, 2026-177E
Orbit
SSO
Country
Flag of USUS
Related business
Manufacturer
SpaceX/Seattle
Mission
Operational spacecraft
Bus & Motor
STARLINK V2MO, Unknown motor
Mass
575 kg wet, ~530 kg dry
Launch date (UTC)
2026-08-04 (1 month ago)
Launch vehicle
Unknown
Launch site
Air Force Western Test Range (AFWTR)
Object type
Payload
Rocket body
Debris
Shape & HBR
BOX + PAN, 17.7 m
Radar Cross Section
RCS unknown

Expand to show TLE details & history
Last TLE update: 6 hours ago

TLE from 6 hours ago
0 STARLINK-38226
1 A0217U 26177E   26255.95019476  .00052837  00000-0  96583-3 0  9993
2 A0217  97.2829 306.7050 0001544  80.5636 279.5789 15.49213375  6195
Epoch: 2026-09-12T22:48Z
TLE epoch observation values (Epoch: 2026-09-12T22:48:16.827Z)
Latitude
-0.00009°
Longitude
-27.31695°
Altitude
421.985 km
Speed
7.658 km/s
True Right ascension
20h 26m 49s
True Declination
0° 00' 00"
Sunlit
Object was in full shadow at epoch
Visualization orbit readout
Latitude
Unknown
Longitude
Unknown
Altitude
Unknown
Speed
Unknown
Apparent Right ascension
Unknown
Apparent Declination
Unknown
Sunlit
N/A
Visualization observer readout
Local Sidereal Time
21:33:14
Azimuth
Unknown
Elevation
Unknown
Doppler factor
Unknown
Orbital elements
Apogee altitude
416.997 km
Perigee altitude
414.899 km
Semi-major axis
6,794.085 km
Eccentricity
0.00015
Inclination
97.2829°
RAAN
306.705°
Arg. of periapsis
80.5636°
True anomaly
279.56145°
Mean anomaly
279.5789°
Eccentric anomaly
279.57018°
Mean motion
3.87567 °/min
Orbital period
92.89 mins
BSTAR
0.00096583
Loading maneuver chart data...
Computing Atmospheric mass density...
Loading historical data...
Loading historical data...
Loading historical data...
Loading historical data...
Loading historical data...
Loading historical data...
Loading historical data...

Documentation

Showing up to 5 results
|